Flag Weather past 2 weeks in Höxter, North Rhine-Westphalia, Germany

Now
39 °F

Overcast.


Feels Like: 36 °F
Forecast: 31 / 42 °F
Wind: 3 mph from Southeast

Location: Bad Lippspringe

Current Time: Nov 27, 2014 at 3:12:27 AM

Latest Report: Nov 27, 2014 at 2:00 AM


Visibility: N/A

Pressure: 29.94 "Hg

Humidity: 80%

Dew point: 33 °F

Location of HöxterLocation

Historic Weather in Höxter — Graph

°F

Höxter temperature yesterday

Maximum temperature yesterday: 40 °F (at 2:00 AM)
Minimum temperature yesterday: 36 °F (at 8:00 AM)
Average temperature yesterday: 39 °F

Past Weeks' High & Low Weather Summary

 TemperatureHumidityPressure
High57 °F (Nov 12, 3:00 PM)100% (Nov 25, 6:00 AM)30.37 "Hg (Nov 25, 6:00 AM)
Low32 °F (Nov 25, 6:00 AM)65% (Nov 25, 2:00 PM)29.50 "Hg (Nov 16, 6:00 AM)
Average46 °F85%29.98 "Hg
* Reported Nov 12 2:00 AM — Nov 27 2:00 AM, Höxter, Weather by CustomWeather, © 2014

Note: Actual official high and low records may vary slightly from our data, if they occured in-between our weather recording intervals... More about our weather records

Advertising

Höxter weather history for previous 24 hours

 ConditionsComfort  
Time TempWeatherWind HumidityBarometerVisibility
2:00 AM
Nov 27
39 °FOvercast.3 mph80%29.94 "HgN/A
1:00 AM39 °FOvercast.5 mph79%29.96 "HgN/A
12:00 AM39 °FOvercast.5 mph77%29.97 "HgN/A
11:00 PM
Nov 26
39 °FOvercast.3 mph78%29.98 "HgN/A
10:00 PM39 °FOvercast.5 mph77%30.00 "HgN/A
9:00 PM39 °FOvercast.5 mph75%30.00 "HgN/A
8:00 PM39 °FOvercast.5 mph76%30.00 "HgN/A
7:00 PM39 °FOvercast.6 mph75%30.00 "HgN/A
6:00 PM39 °FOvercast.6 mph76%30.01 "HgN/A
5:00 PM40 °FOvercast.5 mph75%30.02 "HgN/A
4:00 PM40 °FOvercast.5 mph75%30.02 "HgN/A
3:00 PM40 °FOvercast.5 mph77%30.03 "HgN/A
2:00 PM39 °FOvercast.3 mph78%30.05 "HgN/A
1:00 PM38 °FScattered clouds.5 mph79%30.08 "HgN/A
12:00 PM38 °FSunny.6 mph79%30.10 "HgN/A
11:00 AM37 °FSunny.6 mph81%30.12 "HgN/A
10:00 AM37 °FPassing clouds.5 mph82%30.12 "HgN/A
9:00 AM37 °FPassing clouds.3 mph82%30.12 "HgN/A
8:00 AM36 °FClear.6 mph84%30.13 "HgN/A
7:00 AM37 °FPassing clouds.5 mph84%30.13 "HgN/A
6:00 AM39 °FOvercast.5 mph81%30.14 "HgN/A
5:00 AM40 °FOvercast.8 mph81%30.14 "HgN/A
4:00 AM40 °FOvercast.6 mph82%30.16 "HgN/A
3:00 AM40 °FOvercast.6 mph82%30.17 "HgN/A
Weather by CustomWeather, © 2014

See weather overviewHow to use our weather pages